Regional Weather Roundup
Issued by NWS

Home | Current Version | Previous Version | Graphics & Text | Print | Product List | Glossary On
Versions: 1 2 3 4 5 6 7 8 9 10 11 12 13 14 15 16 17 18 19 20 21 22 23 24 25 26 27 28 29 30 31 32 33 34 35 36 37 38 39 40 41 42 43 44 45 46 47 48 49 50
000
ASUS45 KBOU 202307
RWRCO

WEATHER ROUNDUP FOR COLORADO
NATIONAL WEATHER SERVICE DENVER/BOULDER CO
500 PM MDT MON OCT 20 2014

NOTE: "FAIR" INDICATES FEW OR NO CLOUDS BELOW 12000 FEET WITH NO
SIGNIFICANT WEATHER AND/OR OBSTRUCTIONS TO VISIBILITY.

COZ001>005-013-030-031-210000-
...NORTHWEST COLORADO...

CITY           SKY/WX    TMP DP  RH WIND       PRES   REMARKS
CRAIG          PTSUNNY   67  39  35 W10       30.12F
HAYDEN         MOSUNNY   63  36  36 SW6       30.14F
MEEKER         MOSUNNY   67  36  31 W8        30.12F
MOUNT WERNER   NOT AVBL
STEAMBOAT SPGS MOSUNNY   66  34  30 CALM      30.15F
WALDEN         MOSUNNY   59  30  33 W3        30.21F
$$

COZ006>008-011-210000-
...WEST CENTRAL VALLEYS...

CITY           SKY/WX    TMP DP  RH WIND       PRES   REMARKS
GRAND JUNCTION SUNNY     71  40  32 W9        30.05F
MONTROSE       CLOUDY    69  35  28 SW16G23   30.11F
EAGLE          MOSUNNY   66  34  30 CALM      30.15F
RIFLE          MOSUNNY   71  36  27 NW5       30.08F
DELTA          MOSUNNY   78  34  20 SW6       30.06S
NUCLA          PTSUNNY   66  37  34 SE12      30.15S
$$

COZ017>023-064>068-210000-
...SOUTHWEST COLORADO...

CITY           SKY/WX    TMP DP  RH WIND       PRES   REMARKS
DURANGO        MOSUNNY   62  41  46 S10       30.17S
CORTEZ         MOSUNNY   70  39  32 S8        30.12S
PAGOSA SPRINGS MOSUNNY   59  35  40 SE9G16    30.24R
TELLURIDE      PTSUNNY   55  34  45 W14       30.30S
WOLF CREEK PAS PTSUNNY   39  32  75 S6        30.46S
$$

COZ009-010-012-014-032>034-037-058>063-210000-
...CENTRAL COLORADO...

CITY           SKY/WX    TMP DP  RH WIND       PRES   REMARKS
ASPEN          MOSUNNY   60  34  37 NW9       30.19F
BUENA VISTA    PTSUNNY   59  31  34 SW6       30.23S
COPPER MTN     LGT SNOW  45  30  57 SE7       30.46S
BERTHOUD PASS  CLOUDY    37  34  87 E10       30.49S
COTTONWOOD PAS CLOUDY    54  28  37 S17G25    30.33F
GUNNISON       PTSUNNY   63  32  31 SE8       30.22F
KREMMLING      MOSUNNY   68  28  22 SW7         N/A
LEADVILLE      MOSUNNY   53  25  33 S13       30.31F
SALIDA         PTSUNNY   66  32  27 W9        30.27F
SUNLIGHT       MOSUNNY   50  34  53 CALM      30.39F
WILKERSON PASS NOT AVBL
$$

COZ069>075-210000-
...SAN LUIS VALLEY/SANGRE DE CRISTO MOUNTAINS...

CITY           SKY/WX    TMP DP  RH WIND       PRES   REMARKS
ALAMOSA        MOSUNNY   64  28  25 SW6       30.20F
LA VETA PASS   NOT AVBL
SAGUACHE       PTSUNNY   59  36  41 NW16      30.24F
$$

COZ035-036-038>040-210000-
...NORTHERN COLORADO FRONT RANGE...

CITY           SKY/WX    TMP DP  RH WIND       PRES   REMARKS
DENVER INTL AP MOSUNNY   73  34  23 S18G26    30.06S
DMNS CITY PARK   N/A     71  34  25 SE7G18    30.05S
AURORA         MOSUNNY   71  36  27 S21G26    30.08S
FRONT RANGE AP NOT AVBL
ERIE MUNI ARPT MOSUNNY   77  32  19 S3        30.03S
BOULDER MUN AP MOSUNNY   72  39  30 NW5       30.04F
CENTENNIAL     MOSUNNY   69  35  28 S22G29    30.08F
BROOMFIELD     MOSUNNY   75  36  23 SE10      30.07S
FORT COLLINS   SUNNY     72  43  35 N5        30.05S
LONGMONT       SUNNY     75  41  29 N5        30.05F
$$

COZ041-046-047-076>085-087-088-210000-
...PIKES PEAK/PALMER DIVIDE AND SOUTHERN FOOTHILLS...

CITY           SKY/WX    TMP DP  RH WIND       PRES   REMARKS
COLO. SPRINGS  MOSUNNY   67  34  29 S16       30.18S
A. F. ACADEMY  SUNNY     65  33  30 SE18      30.17F
ELLICOTT       SUNNY     66  33  29 S16       30.17S
FALCON         SUNNY     64  30  28 S16G23    30.22S
FORT CARSON    SUNNY     68  35  29 SE15      30.16S
LIMON          SUNNY     67  33  28 S16G25    30.14S
MONUMENT HILL  SUNNY     61  32  33 S21       30.18S
TRINIDAD       SUNNY     70  35  27 E17       30.14F
$$

COZ042>045-048>051-090-091-210000-
...NORTHEAST COLORADO...

CITY           SKY/WX    TMP DP  RH WIND       PRES   REMARKS
GREELEY ARPT   SUNNY     79  36  21 S12       30.03S
AKRON          SUNNY     73  33  23 S16       30.08S
BURLINGTON     SUNNY     71  38  29 S15G23    30.12S
WRAY           SUNNY     77  36  22 S13G20    30.06F
STERLING       SUNNY     79  36  21 S13       30.02S
HOLYOKE        SUNNY     79  36  21 S10G17    30.05S
FORT MORGAN    SUNNY     75  32  20 SE14G23   30.05F
$$

COZ086-089-092>099-210000-
...SOUTHEAST COLORADO...

CITY           SKY/WX    TMP DP  RH WIND       PRES   REMARKS
PUEBLO         SUNNY     74  33  22 SE12      30.09F
LA JUNTA       SUNNY     74  39  28 SE13      30.10S
LAMAR          SUNNY     74  43  32 SE10      30.08S
SPRINGFIELD      N/A     69  41  36 SE13      30.13S
$$


USA.gov is the U.S. government's official web portal to all federal, state and local government web resources and services.